Location: Unspecified
(49.8670°N, 0.0000°E)
Time: 02:34:09
(UTC+00:00)

Vanguard 1 - Pass Details

Date: 23 June 2019
Orbit: 653 x 3830 km, 34.3° (Epoch: 15 July)

Event Time Altitude Azimuth Distance (km) Brightness Sun altitude
Rises 01:21:42 0° 215° (SW) 7,837 - -14.6°
Reaches altitude 10° 01:28:35 10° 206° (SSW) 6,534 - -14.2°
Exits shadow 01:32:31 16° 199° (SSW) 5,795 13.3 -14.0°
Maximum altitude 01:43:23 28° 158° (SSE) 4,173 12.9 -13.3°
Drops below altitude 10° 01:53:27 10° 107° (ESE) 4,401 13.5 -12.6°
Sets 01:56:55 0° 95° (E) 4,984 14.0 -12.4°
